Location: Bannatyne
(13.0833°N, 59.5333°W)
Time: 18:03:53
(UTC+00:00)

Vanguard 3 - Pass Details

Date: 29 January 2020
Orbit: 508 x 3263 km, 33.3° (Epoch: 22 February)

Event Time Altitude Azimuth Distance (km) Brightness Sun altitude
Rises 03:32:14 0° 301° (WNW) 6,396 11.8 -79.4°
Enters shadow 03:34:28 - 301° (WNW) 5,763 11.5 -79.9°
Reaches altitude 10° 03:37:07 10° 300° (WNW) 4,985 - -80.4°
Maximum altitude 03:50:07 78° 216° (SW) 1,522 - -82.9°
Drops below altitude 10° 03:57:07 10° 130° (SE) 2,816 - -84.0°
Sets 03:59:10 0° 129° (SE) 3,526 - -84.2°
